OBJECT C, 57168

Orbit data source: Space-Track

You're viewing an Uncataloged Satellite

Recently launched and/or uncataloged satellites may have evolving metadata. Metadata may include but not limited to: Owner, Maufacturer, Bus, Motor, and Mission.

OBJECT C, 57168 is a satellite in SSO that was launched on Tue, 27 Jun 2023 UTC via a SOYUZ-2-1B launch vehicle from the Vostochny Cosmodrome (VOSTO). Unknown objects in Earth's orbit typically refer to objects detected orbiting the Earth but have not yet been identified or cataloged. These objects could be anything from previously untracked satellites, spent rocket stages, debris from satellite collisions, or even natural meteoroids temporarily captured by Earth's gravity.

Loading next visibility...
Identifier
57168, 2023-091C
Orbit
SSO
Country
Flag of TBDTBD
Related business
None
Manufacturer
Unknown
Mission
Operational Amateur Technology
Bus & Motor
Unknown
Mass
Unknown
Launch date (UTC)
2023-06-27 (3 years ago)
Launch vehicle
SOYUZ-2-1B
Launch site
Vostochny Cosmodrome (VOSTO)
Object type
Unknown
Shape & HBR
Box, 0.2 m
Radar Cross Section
0.035 m², Medium (>0.1 m² and < 1m²)

Expand to show TLE details & history
Last TLE update: 21 hours ago

TLE from 21 hours ago
0 OBJECT C
1 57168U 23091C   26207.61595320  .00009130  00000-0  34519-3 0  9998
2 57168  97.5009 270.1299 0009876 335.3991  24.6775 15.27154919170274
Epoch: 2026-07-26T14:46Z
TLE epoch observation values (Epoch: 2026-07-26T14:46:58.356Z)
Latitude
-0.00006°
Longitude
104.07543°
Altitude
481.261 km
Speed
7.628 km/s
True Right ascension
18h 00m 31s
True Declination
0° 00' 00"
Sunlit
Object was in full shadow at epoch
Visualization orbit readout
Latitude
Unknown
Longitude
Unknown
Altitude
Unknown
Speed
Unknown
Apparent Right ascension
Unknown
Apparent Declination
Unknown
Sunlit
N/A
Visualization observer readout
Local Sidereal Time
00:53:29
Azimuth
Unknown
Elevation
Unknown
Doppler factor
Unknown
Orbital elements
Apogee altitude
488.057 km
Perigee altitude
474.508 km
Semi-major axis
6,859.42 km
Eccentricity
0.00099
Inclination
97.5009°
RAAN
270.1299°
Arg. of periapsis
335.3991°
True anomaly
24.7248°
Mean anomaly
24.6775°
Eccentric anomaly
24.70115°
Mean motion
3.82043 °/min
Orbital period
94.23 mins
BSTAR
0.00034519
Loading maneuver chart data...
Computing Atmospheric mass density...
Loading historical data...
Loading historical data...
Loading historical data...
Loading historical data...
Loading historical data...
Loading historical data...
Loading historical data...

Documentation

Showing up to 5 results
|